Hourly Data Report for September 16, 2017

All times are specified in Local Standard Time (LST). Add 1 hour to adjust for Daylight Saving Time where and when it is observed.

QIKIQTARJUAQ A
NUNAVUT

67°32'48.000" N
64°01'54.000" W
5.50 m
2400577
YVM

Download Data

Hourly Data (September 2017)
Hourly Data Report for September 16, 2017
Temp Definition
°C
Dew Point Temp Definition
°C
Rel Hum Definition
%
Wind Dir Definition
10's deg

Wind Spd Definition
km/h
Visibility Definition
km
Stn Press Definition
kPa
Hmdx Definition


Wind Chill Definition


Weather Definition


TIME
00:00 Legend Double Dagger 1.0 -0.4 91 1 22 16.1 100.62     LegendNANA
01:00 Legend Double Dagger 1.0 -0.2 92 36 28 16.1 100.62     LegendNANA
02:00 Legend Double Dagger 1.3 -0.9 86 36 22 16.1 100.64     LegendNANA
03:00 Legend Double Dagger 1.0 -0.9 87 35 13 16.1 100.64     LegendNANA
04:00 Legend Double Dagger 1.0 -1.1 86 36 13 16.1 100.65     LegendNANA
05:00 Legend Double Dagger 0.9 -0.7 89 34 15 16.1 100.64     LegendNANA
06:00 Legend Double Dagger 0.8 -0.8 89 1 24 16.1 100.65     LegendNANA
07:00 Legend Double Dagger 0.7 -1.4 86 2 11 16.1 100.64     LegendNANA
08:00 Legend Double Dagger 0.8 -1.9 82 LegendMM 4 16.1 100.65     LegendNANA
09:00 Legend Double Dagger 0.9 -1.8 82 LegendMM 4 16.1 100.64     LegendNANA
10:00 Legend Double Dagger 1.1 -1.5 83 1 11 16.1 100.64     LegendNANA
11:00 Legend Double Dagger 1.4 -2.1 78 36 5 16.1 100.63     LegendNANA
12:00 Legend Double Dagger 1.7 -1.5 80 36 5 16.1 100.65     LegendNANA
13:00 Legend Double Dagger 1.6 -1.6 79 1 11 16.1 100.66     LegendNANA
14:00 Legend Double Dagger 1.7 -0.9 83 36 9 16.1 100.68     LegendNANA
15:00 Legend Double Dagger 1.7 -1.5 79 23 8 16.1 100.69     LegendNANA
16:00 Legend Double Dagger 1.3 -1.7 81 22 8 16.1 100.69     LegendNANA
17:00 Legend Double Dagger 0.6 -1.8 84 20 11 16.1 100.69     LegendNANA
18:00 Legend Double Dagger 0.2 -1.8 87 19 13 16.1 100.69     LegendNANA
19:00 Legend Double Dagger -0.2 -2.0 88 20 11 16.1 100.70   -4 LegendNANA
20:00 Legend Double Dagger -0.3 -2.1 88 21 11 16.1 100.68   -4 LegendNANA
21:00 Legend Double Dagger -0.3 -2.2 87 21 11 16.1 100.68   -4 LegendNANA
22:00 Legend Double Dagger -0.3 -2.5 85 20 15 16.1 100.68   -5 LegendNANA
23:00 Legend Double Dagger -0.3 -2.9 83 LegendMM 4 16.1 100.71   -2 LegendNANA

Notes on Data Quality.

Legend

  • E = Estimated
  • M = Missing
  • NA = Not Available
  • ‡ = Partner data that is not subject to review by the National Climate Archives
Date modified: